Messwerte Allahabad

Temperatur

Temperatur
°C
1603096200 14.00 14.00 35
1603099800 15.00 15.00 35
1603103400 16.00 16.00 34
1603107000 17.00 17.00 32
1603110600 18.00 18.00 29
1603114200 19.00 19.00 28
1603117800 20.00 20.00 27
1603121400 21.00 21.00 27
1603125000 22.00 22.00 26
1603128600 23.00 23.00 25
1603132200 0.00 0.00
1603135800 1.00 1.00 25
1603139400 2.00 2.00
1603143000 3.00 3.00 25
1603146600 4.00 4.00
1603150200 5.00 5.00
1603153800 6.00 6.00 24
1603157400 7.00 7.00 24
1603161000 8.00 8.00 26
1603164600 9.00 9.00 28
1603168200 10.00 10.00 30
1603171800 11.00 11.00 32
1603175400 12.00 12.00 33
1603179000 13.00 13.00 34

Aktuellste Messwerte

Wettercharakter
Wetter: sonnig
Temperatur
31 °C
Feuchtigkeit
35 %
Wind
10 km/hWindrichtung: Nord
Luftdruck
1006 hPa
Messzeit: 20. Oktober 2020, 14.30Datenquelle: METAR

Weitere Messstationen in der Nähe

Messstation Temperatur Entfernung
Lakhnau 33 °C 168 km
Gorakhpur 33 °C 218 km
Jabalpur 31 °C 308 km
Gaya 33 °C 333 km
Patna 31 °C 338 km
Gwalior 33 °C 359 km
Agra 35 °C 419 km

Wind

Windrichtung Böen Mittelwind
° km/h km/h
1603096200 14.00 13.00 - 14.00 330° 5
1603099800 15.00 14.00 - 15.00 290° 10
1603103400 16.00 15.00 - 16.00 310° 5
1603107000 17.00 16.00 - 17.00 5
1603110600 18.00 17.00 - 18.00 5
1603114200 19.00 18.00 - 19.00 0
1603117800 20.00 19.00 - 20.00 5
1603121400 21.00 20.00 - 21.00 0
1603125000 22.00 21.00 - 22.00 5
1603128600 23.00 22.00 - 23.00 5
1603132200 0.00 23.00 - 0.00
1603135800 1.00 0.00 - 1.00 5
1603139400 2.00 1.00 - 2.00
1603143000 3.00 2.00 - 3.00 5
1603146600 4.00 3.00 - 4.00
1603150200 5.00 4.00 - 5.00
1603153800 6.00 5.00 - 6.00 5
1603157400 7.00 6.00 - 7.00 5
1603161000 8.00 7.00 - 8.00 310° 5
1603164600 9.00 8.00 - 9.00 320° 5
1603168200 10.00 9.00 - 10.00 10° 5
1603171800 11.00 10.00 - 11.00 290° 5
1603175400 12.00 11.00 - 12.00 320° 5
1603179000 13.00 12.00 - 13.00 350° 10

Ihre Wetterstation

Fehlt Ihre Wetterstation auf unserem Portal?

Schreiben Sie an network@meteonews.ch

Klima

Wann ist es am wärmsten? Wann regnet es am wenigsten? Unsere Klimadaten geben Auskunft.